Salamanca, Spain

2:14 AM CEST on April 21, 2018 (GMT +0200)
Matacan

Weather History for LESA - January, 2014

Change the Weather History Date:

Sunday, January 26, 2014

  Actual Average Record
Temperature  
Mean Temperature 42 °F -  
Max Temperature 52 °F - - ()
Min Temperature 33 °F - - ()
Degree Days  
Heating Degree Days 22    
Moisture  
Dew Point 41 °F    
Average Humidity 93    
Maximum Humidity 100    
Minimum Humidity 74    
Precipitation  
Precipitation 0.00 in 0.05 in - ()
Sea Level Pressure  
Sea Level Pressure 30.30 in    
Wind  
Wind Speed 4 mph ()    
Max Wind Speed 17 mph    
Max Gust Speed -    
Visibility 3.9 miles    
Events Fog , Rain    
T = Trace of Precipitation, MM = Missing Value Source: Averaged Metar Reports

Daily Weather History Graph

Daily Weather History Graph

Search for Another Location

Airport or City:

Astronomy

Jan. 26, 2014 Rise Set
Actual Time 8:37 AM CET 6:31 PM CET
Civil Twilight 8:08 AM CET 7:01 PM CET
Nautical Twilight 7:35 AM CET 7:34 PM CET
Astronomical Twilight 7:02 AM CET 8:06 PM CET
Moon 4:00 AM CET (1/26) 2:08 PM CET (1/26)
Length of Visible Light 10h 52m
Length of Day
9h 53m
Waning Crescent, 26% of the Moon is Illuminated
Jan 26
Waning Crescent
Jan 30
New
Feb 6
First Quarter
Feb 15
Full
Feb 22
Last Quarter

Hourly Weather History & Observations

Time (CET) Temp. Windchill Dew Point Humidity Pressure Visibility Wind Dir Wind Speed Gust Speed Precip Events Conditions
12:00 AM 46 °F - 43 °F 86%  in - WNW 3.5 mph - -  
12:00 AM 46.4 °F 45.2 °F 44.6 °F 93% 30.45 in 6.2 mi WNW 3.5 mph - N/A   Mostly Cloudy
12:30 AM 44.6 °F 43.1 °F 42.8 °F 93% 30.42 in - SSW 3.5 mph - N/A   Clear
1:00 AM 40 °F - 38 °F 92%  in 9 mi Calm Calm - -  
1:00 AM 41.0 °F - 39.2 °F 93% 30.45 in - Calm Calm - N/A   Clear
1:30 AM 41.0 °F - 39.2 °F 93% 30.42 in - Calm Calm - N/A   Clear
2:00 AM 37 °F - 36 °F 96%  in - Calm Calm - -  
2:00 AM 37.4 °F - 37.4 °F 100% 30.39 in - Calm Calm - N/A   Clear
2:30 AM 33.8 °F - 33.8 °F 100% 30.42 in 0.2 mi Calm Calm - N/A Fog Fog
3:00 AM 35 °F - 34 °F 94%  in - Calm Calm - -  
3:00 AM 33.8 °F - 33.8 °F 100% 30.39 in 0.2 mi Calm Calm - N/A Fog Fog
3:30 AM 35.6 °F - 33.8 °F 93% 30.39 in 0.2 mi Calm Calm - N/A Fog Fog
4:00 AM 35 °F - 34 °F 96%  in 0 mi Calm Calm - - Fog Heavy Fog
4:00 AM 35.6 °F - 33.8 °F 93% 30.39 in 0.2 mi Calm Calm - N/A Fog Fog
4:30 AM 33.8 °F - 33.8 °F 100% 30.39 in 0.2 mi Calm Calm - N/A Fog Fog
5:00 AM 33 °F - 33 °F 100%  in - Calm Calm - -  
5:00 AM 33.8 °F - 33.8 °F 100% 30.39 in 0.5 mi Calm Calm - N/A Fog Fog
5:30 AM 33.8 °F - 33.8 °F 100% 30.39 in 0.3 mi Calm Calm - N/A Fog Fog
6:00 AM 35 °F - 35 °F 99%  in - Calm Calm - -  
6:00 AM 35.6 °F - 35.6 °F 100% 30.39 in 0.3 mi Calm Calm - N/A Fog Fog
6:30 AM 35.6 °F - 35.6 °F 100% 30.36 in 0.3 mi Variable 1.2 mph - N/A Fog Fog
7:00 AM 36 °F - 36 °F 100%  in 0 mi WSW 3.5 mph - - Fog Heavy Fog
7:00 AM 35.6 °F 32.8 °F 35.6 °F 100% 30.36 in 0.3 mi WSW 3.5 mph - N/A Fog Fog
7:30 AM 37.4 °F - 37.4 °F 100% 30.36 in 0.3 mi Calm Calm - N/A Fog Fog
8:00 AM 38 °F - 37 °F 97%  in - Calm Calm - -  
8:00 AM 37.4 °F - 37.4 °F 100% 30.36 in 0.2 mi Calm Calm - N/A Fog Fog
8:30 AM 37.4 °F - 37.4 °F 100% 30.36 in 0.2 mi Variable 1.2 mph - N/A Fog Fog
9:00 AM 38 °F - 38 °F 99%  in - SSW 1.2 mph - -  
9:00 AM 37.4 °F - 37.4 °F 100% 30.33 in 0.2 mi Calm Calm - N/A Fog Fog
9:30 AM 37.4 °F - 37.4 °F 100% 30.33 in 0.2 mi Calm Calm - N/A Fog Fog
10:00 AM 37 °F - 37 °F 98%  in 0 mi Calm Calm - - Fog Heavy Fog
10:00 AM 37.4 °F - 37.4 °F 100% 30.33 in 0.1 mi Calm Calm - N/A Fog Fog
10:30 AM 37.4 °F - 37.4 °F 100% 30.33 in 0.2 mi Calm Calm - N/A Fog Fog
11:00 AM 38 °F - 38 °F 100%  in - Calm Calm - -  
11:00 AM 37.4 °F - 37.4 °F 100% 30.33 in 0.2 mi Calm Calm - N/A Fog Fog
11:30 AM 39.2 °F - 39.2 °F 100% 30.33 in 0.2 mi Calm Calm - N/A Fog Fog
12:00 PM 45 °F - 44 °F 95%  in - Calm Calm - -  
12:00 PM 42.8 °F - 42.8 °F 100% 30.33 in 5.6 mi Calm Calm - N/A Fog Partly Cloudy
12:30 PM 48.2 °F - 48.2 °F 100% 30.33 in 6.2 mi Variable 2.3 mph - N/A   Partly Cloudy
1:00 PM 50 °F - 45 °F 75%  in 9 mi WNW 13.8 mph - -   Partly Cloudy
1:00 PM 48.2 °F - 46.4 °F 93% 30.30 in 6.2 mi WNW 12.7 mph - N/A   Scattered Clouds
1:30 PM 50.0 °F - 46.4 °F 87% 30.30 in 6.2 mi West 10.4 mph - N/A   Scattered Clouds
2:00 PM 52 °F - 46 °F 74%  in - West 12.7 mph - -  
2:00 PM 51.8 °F - 46.4 °F 82% 30.27 in 6.2 mi West 12.7 mph - N/A   Mostly Cloudy
2:30 PM 51.8 °F - 48.2 °F 88% 30.24 in 6.2 mi West 13.8 mph - N/A   Mostly Cloudy
3:00 PM 51 °F - 46 °F 75%  in - West 17.3 mph - -  
3:00 PM 50.0 °F - 46.4 °F 87% 30.24 in 6.2 mi West 16.1 mph - N/A   Mostly Cloudy
3:30 PM 50.0 °F - 46.4 °F 87% 30.24 in 6.2 mi West 13.8 mph - N/A   Overcast
4:00 PM 51 °F - 46 °F 75%  in 9 mi West 12.7 mph - -   Overcast
4:00 PM 50.0 °F - 46.4 °F 87% 30.21 in 6.2 mi West 13.8 mph - N/A   Overcast
4:30 PM 50.0 °F - 46.4 °F 87% 30.21 in 6.2 mi West 11.5 mph - N/A   Overcast
5:00 PM 51 °F - 46 °F 77%  in - WSW 13.8 mph - -  
5:00 PM 51.8 °F - 46.4 °F 82% 30.21 in 6.2 mi West 12.7 mph - N/A   Overcast
5:30 PM 51.8 °F - 46.4 °F 82% 30.21 in 6.2 mi West 8.1 mph - N/A   Overcast
6:00 PM 51 °F - 46 °F 76%  in - West 12.7 mph - -  
6:00 PM 51.8 °F - 46.4 °F 82% 30.21 in 6.2 mi West 12.7 mph - N/A   Overcast
6:30 PM 50.0 °F - 46.4 °F 87% 30.18 in 6.2 mi West 13.8 mph - N/A   Overcast
7:00 PM 50 °F - 46 °F 81%  in 9 mi West 11.5 mph - -   Overcast
7:00 PM 50.0 °F - 46.4 °F 87% 30.18 in 6.2 mi West 9.2 mph - N/A   Overcast
7:30 PM 50.0 °F - 46.4 °F 87% 30.18 in 6.2 mi West 13.8 mph - N/A   Overcast
8:00 PM 49 °F - 46 °F 86%  in - West 13.8 mph - -  
8:00 PM 48.2 °F - 46.4 °F 93% 30.18 in 6.2 mi West 13.8 mph - N/A   Overcast
8:30 PM 48.2 °F - 46.4 °F 93% 30.18 in 6.2 mi West 10.4 mph - N/A Rain Light Rain
9:00 PM 47 °F - 46 °F 95%  in - West 13.8 mph - -  
9:00 PM 48.2 °F - 46.4 °F 93% 30.18 in 4.3 mi West 12.7 mph - N/A   Drizzle
9:30 PM 46.4 °F 40.4 °F 46.4 °F 100% 30.15 in 6.2 mi WSW 13.8 mph - N/A   Mostly Cloudy
10:00 PM 47 °F - 46 °F 92%  in 9 mi WSW 15.0 mph - -   Partly Cloudy
10:00 PM 46.4 °F 40.4 °F 46.4 °F 100% 30.15 in 6.2 mi WSW 13.8 mph - N/A   Mostly Cloudy
10:30 PM 46.4 °F 40.7 °F 44.6 °F 93% 30.15 in 6.2 mi WSW 12.7 mph - N/A   Partly Cloudy
11:00 PM 47 °F - 45 °F 89%  in - West 13.8 mph - -  
11:00 PM 46.4 °F 41.1 °F 44.6 °F 93% 30.15 in 6.2 mi West 11.5 mph - N/A   Scattered Clouds
11:30 PM 46.4 °F 40.7 °F 44.6 °F 93% 30.12 in 6.2 mi West 12.7 mph - N/A   Scattered Clouds